Hourly Data Report for March 13, 2017

MIRAMICHI RCS
NEW BRUNSWICK

47°00'34.000" N
65°27'54.000" W
33.00 m
8100989
71744
ACQ

Download Data

Hourly Data (March 2017)
Hourly Data Report for March 13, 2017
TIME
LST
Temp Definition
°C
Dew Point Definition
°C
Rel Hum Definition
%
Precip. Amount Definition
mm

Wind Dir Definition
10's deg

Wind Spd Definition
km/h
Visibility Definition
km
Stn Press Definition
kPa
Hmdx Definition


Wind Chill Definition


Weather Definition


00:00 -8.6 -14.5 62 0.0 26 8   100.99   -13 LegendNANA
01:00 -8.5 -14.1 64 0.0 27 11   101.03   -14 LegendNANA
02:00 -8.7 -13.3 70 0.0 29 12   101.07   -14 LegendNANA
03:00 -9.0 -12.8 74 0.0 28 11   101.12   -14 LegendNANA
04:00 -9.3 -12.9 75 0.0 28 9   101.21   -14 LegendNANA
05:00 -9.4 -13.3 73 0.0 27 8   101.29   -14 LegendNANA
06:00 -9.5 -13.0 76 0.0 28 10   101.37   -15 LegendNANA
07:00 -9.3 -13.0 75 0.0 30 10   101.48   -14 LegendNANA
08:00 -8.7 -13.8 66 0.0 30 12   101.56   -14 LegendNANA
09:00 -7.8 -13.9 62 0.0 30 12   101.66   -13 LegendNANA
10:00 -5.7 -12.8 57 0.0 30 10   101.73   -10 LegendNANA
11:00 -4.2 -12.5 52 0.0 29 8   101.78   -8 LegendNANA
12:00 -2.8 -11.8 50 0.0 27 9   101.84   -6 LegendNANA
13:00 -1.8 -11.8 46 0.0 32 5   101.88   -4 LegendNANA
14:00 -1.6 -12.4 44 0.0 27 7   101.91   -4 LegendNANA
15:00 -0.9 -11.8 44 0.0 27 11   101.93   -5 LegendNANA
16:00 -0.5 -11.8 42 0.0 26 11   101.96   -4 LegendNANA
17:00 -0.9 -12.3 42 0.0 27 5   102.03   -3 LegendNANA
18:00 -1.1 -12.6 41 0.0   0   102.09     LegendNANA
19:00 -1.6 -12.1 44 0.0 26 15   102.18   -6 LegendNANA
20:00 -2.5 -12.5 46 0.0 27 13   102.23   -7 LegendNANA
21:00 -3.8 -12.9 49 0.0 27 12   102.31   -8 LegendNANA
22:00 -5.3 -13.8 51 0.0 27 9   102.35   -9 LegendNANA
23:00 -6.3 -14.0 54 0.0 27 7   102.36   -10 LegendNANA

Notes on Data Quality.

Legend

  • E = Estimated
  • M = Missing
  • NA = Not Available*
  • [empty] = Indicates an unobserved value
Date modified: